sat.trackr.live / text

‹ back to catalog

KUIPER-00413

NORAD 68928 · 2026-098K

PAYLOAD ACTIVE UNKNOWN

§ Identity

Operator
Country
US
Launch date
2026-04-30
Launch site
FRGUI
Launch vehicle
Mass (kg)
RCS (m²)

External: N2YO · Heavens-Above · Gunter

§ Orbital elements

Epoch: 2026-09-19T23:30:40.597920Z

Period
97.30 min
Inclination
51.9013°
Eccentricity
0.0000438
Mean motion
14.79929726 rev/d
Perigee alt
629.2 km
Apogee alt
629.9 km
Semi-major
7,007.7 km
B*
1.3938e-4
RAAN
1.4805°
Arg perigee
185.2426°
Mean anomaly
174.8531°
Rev number
2,148

§ Raw data

KUIPER-004131 68928U 26098K   26262.97963655  .00000842  00000+0  13938-3 0  99962 68928  51.9013   1.4805 0000438 185.2426 174.8531 14.79929726 21485

JSON: /api/v1/satellites/68928 · /tle

For live sub-satellite position, see the globe view (requires WebGL).

§ Visibility from observer

Set your observer location to see the next 7 days of passes ≥ 10°. The values pass through the URL so the page stays shareable.

No JS? Fill the form by hand. The geolocation button needs JavaScript.